Flag for Bolivia Weather past 2 weeks in Santa Cruz, Bolivia

Now
73 °F

Passing clouds.


Feels Like: 72 °F
Forecast: 67 / 88 °F
Wind: No wind

Location: Viru-Viru

Current Time: Mar 29, 2015 at 10:49:42 PM

Latest Report: Mar 29, 2015 at 10:00 PM


Visibility: N/A

Pressure: 29.95 "Hg

Humidity: 89%

Dew point: 70 °F

Location of Santa CruzLocation

Historic Weather in Santa Cruz — Graph

°F

Santa Cruz temperature yesterday

Maximum temperature yesterday: 81 °F (at 2:00 PM)
Minimum temperature yesterday: 64 °F (at 5:00 AM)
Average temperature yesterday: 71 °F

Past Weeks' High & Low Weather Summary

 TemperatureHumidityPressure
High93 °F (Mar 18, 2:00 PM)100% (Mar 14, 10:00 PM)30.15 "Hg (Mar 14, 10:00 PM)
Low63 °F (Mar 27, 6:00 AM)38% (Mar 22, 3:00 PM)29.77 "Hg (Mar 15, 4:00 PM)
Average78 °F77%29.93 "Hg
* Reported Mar 14 9:00 PM — Mar 29 9:00 PM, Santa Cruz, Weather by CustomWeather, © 2015

Note: Actual official high and low records may vary slightly from our data, if they occured in-between our weather recording intervals... More about our weather records

Advertising

Santa Cruz weather history for previous 24 hours

 ConditionsComfort  
Time TempWeatherWind HumidityBarometerVisibility
9:00 PM
Sun, Mar 29
73 °FPartly cloudy.3 mph89%29.95 "HgN/A
8:00 PM75 °FPassing clouds.3 mph83%29.92 "HgN/A
7:00 PM77 °FPartly cloudy.5 mph79%29.89 "HgN/A
6:00 PM81 °FScattered clouds.6 mph58%29.89 "HgN/A
5:00 PM84 °FBroken clouds.5 mph51%29.89 "HgN/A
4:00 PM86 °FPartly sunny.5 mph46%29.92 "HgN/A
3:00 PM84 °FPartly sunny.7 mph48%29.95 "HgN/A
2:00 PM84 °FScattered clouds.6 mph48%29.98 "HgN/A
1:00 PM84 °FScattered clouds.2 mph48%30.01 "HgN/A
12:00 PM82 °FScattered clouds.2 mph51%30.04 "HgN/A
11:00 AM81 °FScattered clouds.6 mph54%30.07 "HgN/A
10:00 AM77 °FPassing clouds.9 mph61%30.09 "HgN/A
9:00 AM77 °FPassing clouds.9 mph65%30.09 "HgN/A
8:00 AM73 °FPassing clouds.8 mph74%30.09 "HgN/A
7:00 AM68 °FPassing clouds.3 mph94%30.07 "HgN/A
6:00 AM66 °FPassing clouds.5 mph94%30.07 "HgN/A
5:00 AM68 °FPartly cloudy.9 mph94%30.04 "HgN/A
4:00 AM70 °FMostly cloudy.10 mph88%30.04 "HgN/A
3:00 AM70 °FMostly cloudy.9 mph94%30.07 "HgN/A
2:00 AM70 °FPartly cloudy.5 mph94%30.07 "HgN/A
1:00 AM70 °FMostly cloudy.3 mph94%30.07 "HgN/A
12:00 AM70 °FMostly cloudy.3 mph94%30.07 "HgN/A
11:00 PM
Sat, Mar 28
72 °FMostly cloudy.1 mph88%30.07 "HgN/A
10:00 PM72 °FPartly cloudy.2 mph88%30.07 "HgN/A
Weather by CustomWeather, © 2015

See weather overviewHow to use our weather pages